Theta_e
301 296 294 297 300 299 298 295 294 298 301 299 297 297 299 302 303 303 304 305 306 306 308 308 308 310 310 310 309 309 309 311 312 313 314 316 316 318 318 319 318 317 315 313
296 293 299 301 300 296 295 294 294 298 301 298 297 295 298 301 302 304 303 304 304 304 305 306 307 307 307 307 307 307 307 308 309 311 313 314 314 316 316 317 316 316 314 311
295 300 302 297 296 295 296 295 295 294 296 297 295 294 298 302 305 305 304 303 303 303 303 303 303 303 304 304 305 305 305 306 307 307 309 310 311 312 309 312 312 313 312 311
297 299 295 295 294 295 291 296 294 292 291 288 296 286 295 300 301 300 300 301 301 302 302 300 300 300 300 301 304 303 304 304 305 306 305 305 305 304 306 308 309 310 310 309
294 294 293 292 294 295 293 295 293 292 291 291 292 289 295 300 296 296 299 300 300 299 298 298 298 298 298 299 300 301 300 301 302 304 303 303 303 305 306 306 307 306 307 307
297 297 296 296 297 296 295 293 294 295 292 286 293 292 293 295 296 297 298 297 297 297 297 296 297 297 296 297 298 299 297 297 299 299 299 300 300 301 302 303 303 304 304 304
296 294 298 297 293 295 293 291 287 286 287 286 293 290 293 298 300 297 296 295 296 296 295 295 294 294 294 294 295 295 295 294 295 295 297 297 297 298 299 300 301 302 302 302
290 288 295 296 295 295 293 294 286 280 282 286 292 286 293 301 296 297 297 296 296 295 295 294 294 294 293 294 294 293 293 292 293 293 294 296 296 296 297 298 299 300 300 302
289 289 296 296 298 296 293 288 294 287 288 284 288 292 298 299 295 296 296 295 293 293 293 293 294 293 293 293 293 294 293 293 292 292 293 293 294 294 294 295 296 297 299 298
294 287 296 296 295 296 291 293 286 287 279 279 285 288 289 292 293 294 293 292 291 291 291 291 291 292 291 291 292 293 292 292 292 291 291 292 293 293 293 294 294 294 295 296
294 291 290 294 291 291 288 286 287 288 287 281 280 285 294 292 292 291 290 290 290 289 289 289 290 290 291 290 290 290 290 290 290 290 290 290 291 291 291 292 292 293 293 293
296 290 286 288 295 296 294 291 291 284 283 285 284 284 298 296 290 289 289 288 288 288 288 288 288 288 288 288 288 288 288 288 288 288 288 288 289 289 288 287 288 290 291 292
294 288 282 284 288 291 289 290 290 290 288 283 281 283 297 292 289 289 287 287 287 287 287 286 286 286 286 287 287 287 286 286 287 286 286 287 287 287 286 285 286 287 288 289
294 287 285 280 283 288 283 286 287 286 282 282 283 284 289 291 290 288 286 285 285 285 286 285 284 285 285 286 286 286 285 286 286 285 285 285 286 286 284 284 284 285 285 286
290 282 285 286 286 284 283 283 283 281 283 279 282 282 286 288 287 285 284 284 282 282 284 284 283 284 285 285 285 286 285 285 285 284 284 284 285 285 283 282 284 284 283 284
286 281 282 277 282 282 280 282 282 282 282 282 282 281 288 286 286 284 283 282 282 282 283 284 283 284 284 284 284 285 285 284 284 283 283 284 283 283 281 281 281 282 282 283
282 280 278 274 279 278 273 277 279 280 282 282 278 281 283 281 280 281 281 281 281 283 283 283 284 284 285 285 285 284 285 285 283 282 282 282 281 282 280 280 280 279 279 281
280 279 278 273 274 266 278 282 281 279 280 281 281 281 281 279 281 282 283 282 282 283 283 284 285 285 285 286 285 285 285 284 282 281 281 281 280 280 280 278 278 278 278 278
281 278 274 270 270 274 276 279 277 276 276 282 281 281 280 280 280 280 283 284 283 284 284 285 286 286 286 284 284 283 282 282 281 280 280 280 280 279 278 275 276 277 276 276
278 280 275 272 266 265 275 278 280 279 271 283 282 280 279 279 273 277 283 284 284 285 285 285 286 285 283 283 282 280 279 279 278 279 279 279 279 277 276 275 275 275 275 275
272 273 271 271 269 272 279 280 280 269 272 280 281 281 280 278 280 283 284 283 284 284 284 285 284 282 281 281 280 278 278 276 277 278 277 277 277 276 276 274 274 273 272 272
271 270 269 270 268 266 280 278 273 279 281 281 281 281 280 282 282 283 283 282 283 282 281 281 279 278 279 279 277 275 274 276 275 275 274 273 273 274 274 272 271 270 270 269
270 274 273 273 273 280 281 281 283 283 281 282 282 282 282 281 281 281 280 279 279 278 277 277 275 274 274 274 273 271 272 272 271 269 267 267 268 269 269 268 268 267 268 268
277 280 275 274 277 278 280 282 283 283 282 283 284 281 279 278 278 276 276 275 274 274 273 273 271 269 269 270 269 268 268 267 264 263 263 263 263 264 265 266 266 266 266 266
278 278 276 275 278 279 281 282 282 283 283 280 278 276 275 275 273 273 272 271 271 270 270 269 267 266 266 266 265 264 264 263 261 260 261 261 261 261 262 263 264 264 265 266
279 277 274 273 279 279 279 283 283 279 280 277 274 274 274 272 270 270 268 268 268 267 266 265 265 264 263 263 262 262 261 261 259 259 260 260 260 260 261 261 261 266 267 269
Wind_Speed
8 9 11 15 15 18 20 21 23 22 20 23 21 21 20 21 24 22 20 15 9 8 7 9 9 11 10 10 8 4 1 4 5 6 6 7 8 7 8 8 12 11 10 12
4 12 15 15 13 13 17 21 21 20 16 16 21 21 25 19 19 12 10 9 8 8 15 14 17 16 16 16 15 12 8 3 3 4 5 5 5 7 7 7 9 11 12 12
16 15 14 9 12 17 20 22 21 23 18 17 14 17 10 10 16 6 6 10 13 17 16 16 17 18 18 19 18 15 14 11 5 2 2 3 5 5 4 6 7 10 13 13
12 5 5 11 13 14 16 11 8 12 10 9 11 10 17 10 5 15 15 15 17 17 17 18 19 20 19 17 15 17 16 15 11 9 4 4 5 7 6 6 6 8 11 13
2 5 3 6 9 4 9 5 9 11 13 17 12 9 4 4 12 13 14 17 18 19 17 17 18 17 17 17 15 15 16 15 15 12 9 6 8 6 6 6 9 8 8 11
13 3 5 7 6 10 3 8 13 14 8 9 12 14 5 4 6 9 18 16 15 14 14 14 13 13 14 15 15 15 18 18 17 16 15 12 11 11 9 7 8 6 6 7
3 12 11 5 7 7 7 8 7 7 8 9 2 7 11 8 1 11 13 11 12 12 12 12 14 13 14 14 14 13 16 16 16 15 15 14 13 12 11 11 9 11 6 6
11 13 9 11 12 5 11 7 5 7 11 15 14 9 9 8 16 13 12 12 11 11 9 10 9 9 10 11 12 12 13 13 13 14 13 13 13 8 8 9 10 9 9 8
9 9 2 8 5 3 3 6 8 11 13 8 10 16 15 4 11 11 10 9 10 10 10 10 9 9 9 10 12 13 11 10 9 9 10 12 11 12 11 12 11 10 11 8
3 13 7 2 3 5 5 3 4 5 5 13 15 15 13 11 11 6 8 10 10 10 12 12 12 12 13 14 12 12 13 13 13 12 11 11 10 11 10 9 10 11 12 13
2 4 9 5 6 12 4 6 6 5 6 8 14 12 11 12 8 5 6 9 11 12 12 13 13 13 13 14 15 15 14 15 14 14 14 12 11 11 11 10 11 10 11 12
5 2 7 18 18 19 16 17 17 15 12 10 12 17 15 5 8 6 4 3 5 7 9 9 10 11 12 12 12 13 13 13 11 12 12 12 11 11 11 12 13 13 13 12
3 3 7 10 10 5 3 7 9 15 14 19 17 17 7 5 15 7 3 3 4 5 7 7 9 9 9 10 11 11 12 12 11 11 11 11 10 11 11 12 11 11 13 14
3 3 8 12 19 13 9 11 16 12 6 11 13 19 21 18 16 15 6 6 5 6 7 6 7 8 9 8 9 9 10 11 11 11 11 10 11 11 11 12 12 12 12 12
3 9 12 14 15 16 15 17 22 20 21 20 22 24 23 20 18 9 2 3 5 8 6 8 8 9 10 10 10 10 10 11 11 12 12 11 11 10 10 11 11 12 13 12
3 10 8 14 14 18 23 26 24 22 23 25 24 26 24 9 6 9 11 12 13 14 13 10 9 10 9 9 10 11 12 12 10 11 12 12 12 11 10 11 11 11 12 12
5 5 5 17 13 13 11 21 20 22 24 25 22 13 6 1 3 8 12 14 16 16 17 16 14 12 10 10 10 12 12 10 9 11 13 13 12 13 12 12 13 12 12 12
12 10 7 11 7 17 12 5 8 14 15 7 8 4 5 1 7 12 13 15 16 17 17 16 13 15 14 11 11 11 9 11 11 12 13 14 13 14 14 14 14 15 13 14
17 13 7 7 10 16 21 14 7 6 12 2 10 7 5 5 14 16 15 14 17 16 14 13 14 14 12 11 10 9 10 11 13 14 15 14 13 13 13 14 16 15 14 16
6 12 10 5 8 10 5 5 3 0 12 3 4 5 6 12 12 13 16 15 16 15 14 15 15 12 12 12 12 12 13 13 15 15 15 15 14 14 14 14 15 15 14 16
3 5 14 15 13 10 5 6 2 7 7 8 7 5 11 12 13 17 14 15 15 15 15 14 12 11 13 15 13 15 15 17 15 14 14 15 16 16 16 15 15 15 16 17
7 6 7 6 9 14 3 6 7 4 6 10 15 19 16 15 15 15 15 15 15 15 15 14 13 14 15 15 14 17 18 17 17 16 16 16 17 15 14 18 16 17 17 19
8 12 7 8 4 5 7 7 11 12 15 17 16 14 14 15 16 16 13 13 14 14 13 13 13 15 16 15 14 18 19 19 19 18 18 18 18 16 16 17 18 16 16 15
15 18 12 13 16 22 20 20 18 15 17 16 13 8 6 11 11 11 10 11 12 12 14 13 15 18 19 16 16 16 18 17 18 20 20 18 18 18 17 14 14 15 15 15
14 8 14 14 18 20 20 19 18 17 13 3 1 3 6 7 9 11 10 10 12 13 13 14 15 18 20 19 17 16 17 17 18 18 17 17 15 16 16 15 13 14 16 17
18 20 14 15 19 17 17 16 13 7 7 1 4 5 5 6 10 11 11 11 12 13 13 14 16 17 19 19 19 18 16 17 17 17 14 14 14 14 14 14 14 24 31 35
Wind_Direction
194 221 221 246 247 265 284 287 284 291 295 290 293 298 299 289 284 278 287 297 311 356 45 42 45 47 48 53 40 34 176 199 206 198 215 226 232 225 227 227 231 225 215 213
184 240 255 278 280 290 283 280 283 288 298 312 293 294 286 280 266 286 318 341 23 78 79 57 51 43 48 44 35 36 30 10 228 237 215 233 231 238 240 227 227 229 225 213
256 275 322 290 277 278 272 281 291 294 309 292 300 279 256 269 284 345 27 73 85 91 67 56 49 40 31 29 25 29 28 18 3 284 267 251 269 280 277 255 238 229 229 222
267 315 297 273 262 271 286 308 315 306 313 300 356 295 304 278 311 84 90 87 93 69 60 47 40 36 31 26 23 25 33 24 11 355 336 293 283 280 270 256 249 246 228 235
137 177 218 261 269 310 274 343 309 297 283 287 272 244 267 273 125 113 81 81 71 62 54 44 42 40 33 25 23 24 32 34 23 12 5 350 329 314 306 296 275 242 235 229
267 133 221 227 241 218 319 278 272 259 266 259 262 227 277 95 119 118 93 76 66 61 56 55 49 41 35 30 24 20 23 26 23 17 10 7 351 332 317 304 295 269 249 232
237 222 204 201 253 199 226 258 305 279 224 260 53 309 259 306 12 89 100 84 73 71 64 49 40 37 35 30 29 24 25 23 16 13 7 14 2 342 324 318 308 300 270 247
285 289 185 169 224 280 203 256 211 267 281 294 317 263 256 212 94 105 104 97 80 59 54 46 50 41 33 31 33 30 30 25 15 8 358 22 14 354 337 327 319 309 296 287
296 259 53 197 229 240 84 230 282 264 281 280 245 267 265 190 108 115 104 83 55 40 38 38 35 35 32 32 31 31 23 24 23 10 6 23 10 0 352 339 326 317 307 293
307 289 270 334 189 230 248 1 238 209 240 253 265 266 270 192 156 92 51 30 25 19 16 17 15 14 19 23 20 20 19 13 11 11 10 13 356 352 349 344 338 328 313 304
11 274 275 300 210 250 195 239 221 298 190 261 270 268 34 51 71 67 30 21 7 4 3 1 1 3 6 10 8 7 7 2 2 1 360 357 354 353 343 339 340 337 321 306
168 186 268 261 276 282 269 266 265 248 242 225 253 262 293 7 102 67 26 31 2 348 344 351 354 358 1 0 357 355 355 352 354 350 347 346 344 345 343 339 335 333 327 319
36 241 278 293 267 32 328 337 322 297 287 260 266 269 347 103 160 119 340 321 311 321 330 331 349 350 340 344 340 343 341 339 341 343 338 335 337 336 334 332 326 325 324 324
132 213 246 260 278 314 282 270 282 271 265 295 274 295 290 294 317 341 346 342 318 290 293 292 307 318 319 322 325 325 325 326 330 332 327 323 327 328 329 326 323 324 323 316
280 259 259 264 283 296 284 274 270 270 268 262 280 284 282 296 315 329 302 303 305 318 285 281 303 298 298 308 310 314 312 313 319 319 316 314 316 312 314 315 314 317 318 316
178 265 301 281 276 272 276 270 272 274 267 265 268 271 277 325 326 313 328 336 324 322 324 303 296 299 301 284 282 289 296 302 313 304 300 304 307 303 304 307 309 309 308 308
242 256 248 264 282 305 278 257 259 261 260 264 271 311 12 47 317 323 324 327 314 312 316 312 301 300 304 301 288 275 277 281 286 294 299 298 301 299 303 306 306 303 307 306
245 239 249 272 296 258 259 311 283 277 286 295 276 215 163 157 321 316 310 309 306 312 305 303 302 299 299 299 299 288 276 269 270 274 278 284 291 293 298 306 306 306 307 306
232 245 255 247 238 281 294 297 308 278 286 204 242 190 195 309 322 295 290 317 314 308 303 292 295 293 297 302 307 301 281 277 272 271 273 269 270 275 284 290 296 299 305 301
228 233 230 183 243 261 348 91 65 11 273 253 165 180 248 304 292 293 316 312 303 301 298 296 299 320 306 308 312 296 285 284 282 282 278 276 272 270 266 272 282 287 287 287
169 216 225 236 245 260 292 103 123 253 314 130 165 237 283 286 281 296 300 299 300 305 311 320 320 310 307 309 308 299 297 290 294 290 285 283 280 276 271 273 281 282 287 288
217 225 213 237 259 265 91 127 224 302 316 296 303 308 299 299 296 292 297 305 312 314 322 326 316 305 307 311 313 302 296 304 305 301 294 291 289 287 285 283 282 279 280 280
239 232 264 223 258 271 185 258 242 278 287 290 291 289 296 303 297 300 310 318 315 315 313 316 311 306 304 306 308 301 304 311 307 306 303 300 296 291 286 282 279 279 274 270
262 252 247 258 253 264 271 271 275 284 288 290 292 317 307 293 304 306 311 310 311 310 310 317 313 304 299 307 308 303 310 314 308 301 300 300 297 294 288 282 277 273 270 270
248 279 245 251 257 266 262 264 265 267 267 299 37 328 303 313 305 308 311 311 309 311 311 310 305 300 299 306 308 309 305 306 301 298 298 296 291 288 288 281 280 276 274 271
245 248 252 259 259 264 278 283 301 312 289 16 331 309 316 327 314 316 308 309 310 308 310 302 298 298 302 304 301 302 302 298 296 294 292 289 290 286 284 284 281 273 279 280